Location: Kitt Peak
(31.9633°N, 111.6000°W)
Time: 08:44:31
(UTC-07:00)

Amateur Radio Satellites - All Passes

Search period start: 28 November 2014 08:14
Search period end: 29 November 2014 08:14
Location: Kitt Peak, 31.9633°N, 111.6000°W

Satellite Date Start Highest point End Downlink Frequencies (MHz)
Time Altitude Azimuth
CUTE-I 28 Nov 08:15:22 08:17:51 13° 295° (WNW) 08:20:19 437.470
CANX-2 28 Nov 08:20:39 08:23:10 15° 94° (E) 08:25:40 2200.000
CUTE 1.7 + AOD 2 28 Nov 08:53:42 08:57:40 35° 98° (E) 09:01:36 437.475
BRITE-PL 28 Nov 09:01:36 09:05:34 42° 99° (E) 09:09:40 437.365/2234.400
GONETS M04 28 Nov 09:01:54 09:10:27 55° 280° (W) 09:19:06
DOVE 4 28 Nov 09:04:38 09:08:02 23° 97° (E) 09:11:32 437.250
UNISAT 6 28 Nov 09:17:36 09:19:05 12° 67° (ENE) 09:20:33 437.425
CINEMA 3 28 Nov 09:21:41 09:25:01 22° 97° (E) 09:28:25 145.822/145.860
SEEDS 28 Nov 09:23:10 09:27:27 73° 101° (ESE) 09:31:43 437.485
DELFI C3 28 Nov 09:27:44 09:30:56 21° 96° (E) 09:34:07 145.870
UKube-1 28 Nov 09:30:29 09:33:58 23° 97° (E) 09:37:25 .
HO-68 28 Nov 09:33:20 09:40:32 89° 286° (WNW) 09:47:41 435.675
POLYITAN 1 28 Nov 09:34:23 09:36:13 13° 68° (ENE) 09:38:04 437.675
AAUSAT CUBESAT 2 28 Nov 09:34:46 09:39:00 73° 101° (ESE) 09:43:14 437.432
QB50P2 28 Nov 09:35:13 09:37:10 13° 68° (ENE) 09:39:07 145.880/145.840
FUNcube-1 28 Nov 09:38:32 09:40:50 14° 94° (E) 09:43:09 145.935
DUCHIFAT 1 28 Nov 09:39:10 09:41:26 14° 68° (ENE) 09:43:42 145.980
Oscar 11 28 Nov 09:39:19 09:43:22 37° 98° (E) 09:47:23 145.826/435.025
ANTELSAT 28 Nov 09:44:27 09:47:56 25° 71° (ENE) 09:51:26 437.575/2403.000
COMPASS 1 28 Nov 09:51:58 09:56:09 58° 284° (WNW) 10:00:19 437.405
CANX-2 28 Nov 09:55:16 09:59:09 34° 287° (WNW) 10:03:02 2200.000
NANOSAT C BR1 28 Nov 09:57:44 10:01:09 24° 71° (ENE) 10:04:35 145.865
GOMX 1 28 Nov 09:57:57 10:02:02 53° 284° (WNW) 10:06:18 467.674
HUMSAT D 28 Nov 10:03:40 10:06:19 16° 95° (E) 10:08:59 437.325/437.525
BUGSAT 1 28 Nov 10:04:50 10:08:16 24° 71° (ENE) 10:11:40 437.445
QB50P1 28 Nov 10:07:36 10:11:23 32° 73° (ENE) 10:15:09 145.935-145.965
DX 1 28 Nov 10:07:59 10:12:19 72° 102° (ESE) 10:16:38 434.975-435.025
UWE-3 28 Nov 10:09:40 10:13:46 42° 99° (E) 10:17:57 435.000/436.395/437.385
CUBEBUG 2 28 Nov 10:14:48 10:19:03 58° 101° (E) 10:23:25 437.445
CUTE 1.7 + AOD 2 28 Nov 10:30:46 10:33:15 15° 291° (WNW) 10:35:44 437.475
POPSAT HIP 1 28 Nov 10:32:17 10:36:30 66° 76° (ENE) 10:40:43 437.405
TIGRISAT 28 Nov 10:36:00 10:40:14 74° 258° (WSW) 10:44:29 435.000
ZACube-1 28 Nov 10:38:42 10:43:00 83° 102° (ESE) 10:47:23 437.345
BRITE-PL 28 Nov 10:42:16 10:43:44 12° 292° (WNW) 10:45:14 437.365/2234.400
DOVE 4 28 Nov 10:42:25 10:45:42 22° 288° (WNW) 10:49:05 437.250
VELOX 1 28 Nov 10:49:23 10:53:45 62° 101° (E) 10:58:06 145.980
UNISAT 6 28 Nov 10:51:21 10:55:26 45° 260° (W) 10:59:32 437.425
ESTCUBE 1 28 Nov 10:57:56 11:01:46 27° 97° (E) 11:05:33 437.505/2401.250
CINEMA 3 28 Nov 10:58:39 11:02:07 25° 288° (WNW) 11:05:43 145.822/145.860
DELFI C3 28 Nov 11:02:52 11:06:06 22° 289° (WNW) 11:09:20 145.870
UKube-1 28 Nov 11:06:36 11:09:59 23° 290° (WNW) 11:13:22 .
POLYITAN 1 28 Nov 11:07:44 11:11:46 42° 261° (W) 11:15:48 437.675
QB50P2 28 Nov 11:08:40 11:12:41 41° 261° (W) 11:16:43 145.880/145.840
50 SAT 28 Nov 11:08:45 11:12:51 89° 282° (WNW) 11:16:57 437.505
DUCHIFAT 1 28 Nov 11:13:01 11:16:57 37° 261° (W) 11:20:53 145.980
FUNcube-1 28 Nov 11:13:19 11:17:15 37° 286° (WNW) 11:21:16 145.935
Oscar 11 28 Nov 11:16:43 11:19:10 15° 292° (WNW) 11:21:38 145.826/435.025
AISAT 28 Nov 11:17:21 11:21:41 58° 285° (WNW) 11:26:00 437.250
CUBEBUG 1 28 Nov 11:20:20 11:24:31 46° 100° (E) 11:28:40 437.445
ANTELSAT 28 Nov 11:21:32 11:24:40 20° 264° (W) 11:27:49 437.575/2403.000
HO-68 28 Nov 11:23:57 11:27:12 14° 302° (WNW) 11:30:27 435.675
NANOSAT C BR1 28 Nov 11:33:42 11:36:56 21° 264° (W) 11:40:11 145.865
HUMSAT D 28 Nov 11:38:27 11:42:08 30° 287° (WNW) 11:45:51 437.325/437.525
BUGSAT 1 28 Nov 11:40:23 11:43:39 21° 264° (W) 11:46:54 437.445
SO-50 28 Nov 11:41:22 11:45:11 22° 53° (NE) 11:49:00 436.795
QB50P1 28 Nov 11:44:41 11:47:18 16° 265° (W) 11:49:54 145.935-145.965
UWE-3 28 Nov 11:47:56 11:49:56 13° 291° (WNW) 11:51:57 435.000/436.395/437.385
TISAT 1 28 Nov 12:15:04 12:19:07 47° 100° (E) 12:23:09 437.305
VERMONT LUNAR 28 Nov 12:29:00 12:32:23 41° 146° (SSE) 12:35:48 437.305
PHONESAT 2.4 28 Nov 12:29:21 12:32:31 27° 144° (SE) 12:35:43 2401.200-2431.200
SPROUT 28 Nov 12:33:16 12:37:33 71° 101° (ESE) 12:41:48 437.525
ESTCUBE 1 28 Nov 12:34:59 12:38:27 22° 290° (WNW) 12:41:54 437.505/2401.250
ITUPSAT 1 28 Nov 12:43:03 12:44:40 12° 93° (E) 12:46:18 437.325
SWISSCUBE 28 Nov 12:51:33 12:54:39 17° 95° (E) 12:57:44 437.505
CUBEBUG 1 28 Nov 12:58:48 13:00:26 12° 293° (WNW) 13:02:03 437.445
CUSAT 1 28 Nov 13:02:00 13:04:41 52° 279° (W) 13:07:13 437.405
Oscar 19 28 Nov 13:08:53 13:13:58 71° 75° (ENE) 13:19:04 437.125/150
Gurwin Techsat 1B 28 Nov 13:18:59 13:22:24 18° 67° (ENE) 13:25:50 435.225
BEESAT 28 Nov 13:20:58 13:25:18 34° 98° (E) 13:29:37 436.000
SO-50 28 Nov 13:21:19 13:25:48 36° 248° (WSW) 13:30:16 436.795
YUBILEINY 28 Nov 13:27:30 13:35:58 54° 80° (E) 13:44:22 435.215
AUBIESAT-1 28 Nov 13:34:13 13:38:59 52° 104° (ESE) 13:43:30 437.475
DANDE 28 Nov 13:41:18 13:43:00 15° 281° (W) 13:44:37 436.750
M-CUBED/EXP-1 PRIME 28 Nov 13:41:21 13:46:15 70° 106° (ESE) 13:50:55 437.505
MaSat-1 28 Nov 13:45:25 13:47:30 17° 108° (ESE) 13:49:28 437.345
TISAT 1 28 Nov 13:53:18 13:54:29 11° 293° (WNW) 13:55:41 437.305
VERMONT LUNAR 28 Nov 14:07:30 14:10:53 37° 341° (NNW) 14:14:16 437.305
PHONESAT 2.4 28 Nov 14:07:34 14:11:11 50° 337° (NNW) 14:14:48 2401.200-2431.200
ITAMSAT 1 28 Nov 14:08:01 14:13:14 80° 257° (WSW) 14:18:28 435.822/435.867
ITUPSAT 1 28 Nov 14:18:08 14:22:49 54° 286° (WNW) 14:27:28 437.325
SWISSCUBE 28 Nov 14:28:11 14:32:35 38° 288° (WNW) 14:36:58 437.505
KKS-1 28 Nov 14:39:20 14:43:38 48° 100° (E) 14:47:55 437.445
HORYU 2 28 Nov 14:51:12 14:55:34 65° 75° (ENE) 14:59:58 437.375
Gurwin Techsat 1B 28 Nov 14:56:51 15:01:56 47° 260° (W) 15:07:03 435.225
BEESAT 28 Nov 14:59:28 15:02:52 20° 292° (WNW) 15:06:15 436.000
AO-7 28 Nov 15:05:32 15:13:10 43° 66° (ENE) 15:20:50 29.400- 29.500
RS-15 28 Nov 15:07:42 15:18:18 55° 110° (ESE) 15:28:46 29.354- 29.394
AUBIESAT-1 28 Nov 15:10:42 15:13:26 15° 298° (WNW) 15:16:07 437.475
M-CUBED/EXP-1 PRIME 28 Nov 15:18:55 15:20:35 12° 300° (WNW) 15:22:15 437.505
MaSat-1 28 Nov 15:20:34 15:21:49 12° 297° (WNW) 15:23:02 437.345
YUBILEINY 28 Nov 15:25:23 15:32:09 26° 276° (W) 15:38:54 435.215
STARS 28 Nov 15:29:04 15:33:25 64° 285° (WNW) 15:37:45 437.465
VERMONT LUNAR 28 Nov 15:47:09 15:49:56 20° 358° (N) 15:52:44 437.305
PHONESAT 2.4 28 Nov 15:47:30 15:50:28 22° 354° (N) 15:53:27 2401.200-2431.200
O/OREOS (USA 219) 28 Nov 16:03:16 16:07:45 75° 253° (WSW) 16:12:13 437.305
JAS-2 28 Nov 16:13:09 16:20:08 41° 69° (ENE) 16:27:18 435.910
KKS-1 28 Nov 16:18:03 16:19:48 12° 293° (WNW) 16:21:34 437.445
AO-7 28 Nov 16:58:31 17:05:53 36° 261° (W) 17:13:19 29.400- 29.500
Cubesat XI-IV 28 Nov 17:10:41 17:15:02 26° 69° (ENE) 17:19:23 437.490
RS-15 28 Nov 17:21:02 17:30:53 37° 310° (NW) 17:40:48 29.354- 29.394
VERMONT LUNAR 28 Nov 17:25:53 17:29:05 29° 15° (NNE) 17:32:18 437.305
PHONESAT 2.4 28 Nov 17:26:50 17:29:59 26° 11° (NNE) 17:33:08 2401.200-2431.200
MOZHAYETS 4 28 Nov 17:41:04 17:45:40 61° 284° (WNW) 17:50:14
PRISM 28 Nov 17:49:41 17:53:03 23° 97° (E) 17:56:24 437.425
CUTE-I 28 Nov 17:50:06 17:55:23 63° 74° (ENE) 18:00:41 437.470
JAS-2 28 Nov 17:58:08 18:04:58 37° 264° (W) 18:12:07 435.910
STRAND 1 28 Nov 18:00:29 18:01:47 11° 92° (E) 18:03:06 437.568
BEESAT 2 28 Nov 18:22:55 18:25:11 15° 108° (ESE) 18:27:28 435.950
Cubesat XI-IV 28 Nov 18:50:11 18:54:55 32° 262° (W) 18:59:40 437.490
AIST 1 28 Nov 18:58:21 19:02:10 30° 90° (E) 19:06:01
VERMONT LUNAR 28 Nov 19:04:09 19:07:45 70° 210° (SSW) 19:11:21 437.305
PHONESAT 2.4 28 Nov 19:05:23 19:09:07 81° 27° (NNE) 19:12:49 2401.200-2431.200
AIST 2 28 Nov 19:09:39 19:13:03 24° 111° (ESE) 19:16:31 435.215
PCSat 28 Nov 19:11:24 19:16:47 76° 295° (WNW) 19:22:13 145.827
GONETS M04 28 Nov 19:18:06 19:26:49 61° 81° (E) 19:35:24
PRISM 28 Nov 19:25:12 19:28:27 22° 290° (WNW) 19:31:41 437.425
CUBESAT XI-V 28 Nov 19:31:03 19:35:38 59° 285° (WNW) 19:40:09 437.345
CUTE-I 28 Nov 19:33:44 19:35:47 12° 267° (W) 19:37:49 437.470
STRAND 1 28 Nov 19:36:16 19:41:19 63° 285° (WNW) 19:46:19 437.568
BEESAT 3 28 Nov 19:41:03 19:45:01 52° 300° (WNW) 19:49:04 437.485
CUTE 1.7 + AOD 2 28 Nov 19:43:48 19:46:05 14° 69° (ENE) 19:48:22 437.475
HO-68 28 Nov 19:56:32 20:03:10 42° 68° (ENE) 20:09:50 435.675
BEESAT 2 28 Nov 19:59:19 20:03:06 36° 302° (WNW) 20:06:57 435.950
DOVE 4 28 Nov 20:07:14 20:09:45 15° 70° (ENE) 20:12:13 437.250
BRITE-PL 28 Nov 20:07:49 20:12:14 32° 73° (ENE) 20:16:22 437.365/2234.400
SEEDS 28 Nov 20:11:28 20:14:59 27° 72° (ENE) 20:18:30 437.485
CINEMA 3 28 Nov 20:21:22 20:22:50 12° 68° (ENE) 20:24:16 145.822/145.860
AAUSAT CUBESAT 2 28 Nov 20:22:03 20:25:29 26° 72° (ENE) 20:28:57 437.432
UKube-1 28 Nov 20:23:07 20:24:40 12° 66° (ENE) 20:26:14 .
Oscar 11 28 Nov 20:30:47 20:33:28 17° 69° (ENE) 20:36:10 145.826/435.025
AIST 1 28 Nov 20:36:58 20:39:50 17° 284° (WNW) 20:42:43
COMPASS 1 28 Nov 20:38:54 20:42:55 49° 75° (ENE) 20:46:57 437.405
CANX-2 28 Nov 20:43:09 20:47:22 90° 76° (ENE) 20:51:36 2200.000
PHONESAT 2.4 28 Nov 20:45:17 20:47:34 16° 220° (SW) 20:49:50 2401.200-2431.200
AIST 2 28 Nov 20:48:09 20:51:34 24° 305° (NW) 20:55:03 435.215
DX 1 28 Nov 20:59:12 21:03:08 33° 72° (ENE) 21:07:04 434.975-435.025
GOMX 1 28 Nov 21:01:05 21:05:55 89° 257° (WSW) 21:10:25 467.674
UWE-3 28 Nov 21:03:39 21:06:38 19° 71° (ENE) 21:09:35 435.000/436.395/437.385
CUBEBUG 2 28 Nov 21:09:24 21:12:57 26° 72° (ENE) 21:16:27 437.445
GONETS M04 28 Nov 21:16:27 21:22:50 23° 277° (W) 21:29:12
CUTE 1.7 + AOD 2 28 Nov 21:17:48 21:21:39 35° 262° (W) 21:25:33 437.475
ZACube-1 28 Nov 21:30:43 21:34:31 34° 73° (ENE) 21:38:17 437.345
DOVE 4 28 Nov 21:42:55 21:47:14 38° 261° (W) 21:51:21 437.250
VELOX 1 28 Nov 21:42:55 21:46:51 31° 72° (ENE) 21:50:46 145.980
HO-68 28 Nov 21:44:45 21:50:52 30° 262° (W) 21:57:02 435.675
DELFI C3 28 Nov 21:46:01 21:50:02 67° 259° (W) 21:54:06 145.870
BRITE-PL 28 Nov 21:47:00 21:50:41 20° 263° (W) 21:54:11 437.365/2234.400
SEEDS 28 Nov 21:47:51 21:50:46 18° 265° (W) 21:53:42 437.485
50 SAT 28 Nov 21:53:25 21:56:54 29° 73° (ENE) 22:00:23 437.505
ESTCUBE 1 28 Nov 21:54:26 21:56:58 15° 68° (ENE) 21:59:30 437.505/2401.250
CINEMA 3 28 Nov 21:55:25 21:59:39 46° 260° (W) 22:03:45 145.822/145.860
UKube-1 28 Nov 21:56:10 22:00:22 48° 260° (W) 22:04:35 .
AAUSAT CUBESAT 2 28 Nov 21:58:12 22:01:07 19° 265° (W) 22:04:03 437.432
FUNcube-1 28 Nov 22:04:23 22:08:36 88° 258° (WSW) 22:12:47 145.935
JUGNU 28 Nov 22:04:57 22:08:58 19° 169° (SSE) 22:13:00 437.505
RS-15 28 Nov 22:05:27 22:08:23 11° 22° (NNE) 22:11:19 29.354- 29.394
Oscar 11 28 Nov 22:05:29 22:09:20 32° 262° (W) 22:13:13 145.826/435.025
ISS 28 Nov 22:08:51 22:12:05 59° 317° (NW) 22:15:20 145.825
AISAT 28 Nov 22:10:35 22:15:02 69° 76° (ENE) 22:19:29 437.250
CUBEBUG 1 28 Nov 22:12:38 22:16:05 23° 70° (ENE) 22:19:32 437.445
SRMSAT 28 Nov 22:23:03 22:25:36 13° 163° (SSE) 22:28:09 437.500
POPSAT HIP 1 28 Nov 22:24:10 22:26:45 16° 95° (E) 22:29:19 437.405
HUMSAT D 28 Nov 22:25:34 22:29:42 82° 258° (WSW) 22:33:49 437.325/437.525
TIGRISAT 28 Nov 22:32:44 22:36:47 33° 98° (E) 22:40:55 435.000
DX 1 28 Nov 22:36:40 22:39:24 16° 265° (W) 22:42:09 434.975-435.025
UWE-3 28 Nov 22:39:26 22:42:59 26° 263° (W) 22:46:30 435.000/436.395/437.385
DANDE 28 Nov 22:41:53 22:44:36 14° 78° (ENE) 22:47:39 436.750
CUBEBUG 2 28 Nov 22:46:37 22:49:36 19° 264° (W) 22:52:34 437.445
UNISAT 6 28 Nov 22:47:56 22:52:20 52° 100° (E) 22:56:50 437.425
POLYITAN 1 28 Nov 22:58:28 23:02:30 44° 100° (E) 23:06:33 437.675
QB50P2 28 Nov 22:59:09 23:03:13 45° 100° (E) 23:07:16 145.880/145.840
DUCHIFAT 1 28 Nov 23:03:00 23:07:06 49° 100° (E) 23:11:10 145.980
TISAT 1 28 Nov 23:03:58 23:07:04 20° 70° (ENE) 23:10:09 437.305
ZACube-1 28 Nov 23:08:43 23:10:57 14° 266° (W) 23:13:11 437.345
ANTELSAT 28 Nov 23:17:01 23:21:31 70° 284° (WNW) 23:26:07 437.575/2403.000
VELOX 1 28 Nov 23:20:18 23:23:25 18° 264° (W) 23:26:32 145.980
NANOSAT C BR1 28 Nov 23:22:53 23:27:06 89° 282° (WNW) 23:31:19 145.865
SPROUT 28 Nov 23:23:15 23:26:59 29° 72° (ENE) 23:30:43 437.525
BUGSAT 1 28 Nov 23:26:57 23:31:01 82° 103° (ESE) 23:35:02 437.445
ESTCUBE 1 28 Nov 23:29:10 23:33:26 41° 261° (W) 23:37:45 437.505/2401.250
50 SAT 28 Nov 23:29:49 23:32:12 15° 265° (W) 23:34:35 437.505
QB50P1 28 Nov 23:33:17 23:37:28 65° 284° (WNW) 23:41:39 145.935-145.965
CUSAT 1 28 Nov 23:42:15 23:47:39 64° 82° (E) 23:54:45 437.405
CUBEBUG 1 28 Nov 23:48:37 23:52:17 25° 263° (W) 23:55:58 437.445
JUGNU 28 Nov 23:52:42 23:57:25 25° 179° (S) 00:02:08 437.505
SWISSCUBE 28 Nov 23:55:13 23:57:05 12° 65° (ENE) 23:58:56 437.505
POPSAT HIP 1 28 Nov 23:58:56 00:02:40 31° 287° (WNW) 00:06:24 437.405
SRMSAT 29 Nov 00:09:39 00:14:09 22° 172° (S) 00:18:41 437.500
TIGRISAT 29 Nov 00:10:14 00:13:16 18° 290° (WNW) 00:16:21 435.000
RS-15 29 Nov 00:14:35 00:25:05 42° 52° (NE) 00:35:55 29.354- 29.394
AUBIESAT-1 29 Nov 00:19:29 00:23:03 30° 66° (ENE) 00:26:53 437.475
DANDE 29 Nov 00:22:38 00:27:54 67° 263° (W) 00:34:56 436.750
BEESAT 29 Nov 00:23:25 00:27:11 23° 69° (ENE) 00:30:57 436.000
M-CUBED/EXP-1 PRIME 29 Nov 00:26:48 00:30:35 40° 68° (ENE) 00:34:43 437.505
UNISAT 6 29 Nov 00:26:58 00:28:40 12° 293° (WNW) 00:30:24 437.425
POLYITAN 1 29 Nov 00:36:24 00:38:02 12° 293° (WNW) 00:39:39 437.675
QB50P2 29 Nov 00:37:10 00:38:42 12° 293° (WNW) 00:40:14 145.880/145.840
TISAT 1 29 Nov 00:39:07 00:42:42 26° 263° (W) 00:46:17 437.305
DUCHIFAT 1 29 Nov 00:41:34 00:42:29 11° 293° (WNW) 00:43:25 145.980
SPROUT 29 Nov 01:00:06 01:03:02 18° 265° (W) 01:05:59 437.525
MaSat-1 29 Nov 01:01:13 01:03:10 22° 251° (WSW) 01:05:13 437.345
ITUPSAT 1 29 Nov 01:19:57 01:24:45 83° 258° (WSW) 01:29:36 437.325
Oscar 19 29 Nov 01:25:39 01:30:26 38° 99° (E) 01:35:13 437.125/150
CUSAT 1 29 Nov 01:27:25 01:30:41 15° 268° (W) 01:34:22 437.405
SWISSCUBE 29 Nov 01:29:40 01:34:23 57° 259° (W) 01:39:08 437.505
KKS-1 29 Nov 01:33:34 01:37:10 25° 71° (ENE) 01:40:46 437.445
JUGNU 29 Nov 01:41:30 01:45:53 21° 189° (S) 01:50:16 437.505
SO-50 29 Nov 01:52:19 01:55:25 19° 109° (ESE) 01:58:34 436.795
AUBIESAT-1 29 Nov 01:55:17 01:58:05 18° 262° (W) 02:01:02 437.475
SRMSAT 29 Nov 01:57:59 02:02:48 25° 182° (S) 02:07:37 437.500
BEESAT 29 Nov 02:00:44 02:04:50 28° 263° (W) 02:08:58 436.000
M-CUBED/EXP-1 PRIME 29 Nov 02:03:59 02:05:52 13° 264° (W) 02:07:50 437.505
STARS 29 Nov 02:21:24 02:25:43 60° 75° (ENE) 02:30:03 437.465
YUBILEINY 29 Nov 02:21:37 02:30:22 73° 93° (E) 02:39:06 435.215
ITAMSAT 1 29 Nov 02:26:00 02:31:04 56° 101° (E) 02:36:07 435.822/435.867
RS-15 29 Nov 02:26:46 02:37:34 52° 250° (WSW) 02:48:53 29.354- 29.394
HORYU 2 29 Nov 02:48:42 02:51:53 19° 96° (E) 02:55:04 437.375
Oscar 19 29 Nov 03:05:43 03:09:28 21° 292° (WNW) 03:13:13 437.125/150
KKS-1 29 Nov 03:10:10 03:13:41 23° 263° (W) 03:17:13 437.445
AO-7 29 Nov 03:14:18 03:19:26 17° 94° (E) 03:24:31 29.400- 29.500
Gurwin Techsat 1B 29 Nov 03:17:50 03:23:08 78° 284° (WNW) 03:28:25 435.225
SO-50 29 Nov 03:31:33 03:35:38 34° 304° (WNW) 03:39:51 436.795
JUGNU 29 Nov 03:32:09 03:34:17 12° 197° (SSW) 03:36:24 437.505
SRMSAT 29 Nov 03:47:21 03:51:25 19° 192° (SSW) 03:55:28 437.500
PCSat 29 Nov 04:04:39 04:09:26 31° 58° (ENE) 04:14:10 145.827
BEESAT 3 29 Nov 04:06:05 04:09:22 22° 55° (NE) 04:12:36 437.485
ITAMSAT 1 29 Nov 04:07:22 04:10:02 14° 295° (WNW) 04:12:41 435.822/435.867
YUBILEINY 29 Nov 04:21:58 04:27:51 19° 290° (WNW) 04:33:46 435.215
BEESAT 2 29 Nov 04:24:05 04:27:49 30° 57° (ENE) 04:31:30 435.950
HORYU 2 29 Nov 04:24:36 04:28:32 30° 288° (WNW) 04:32:28 437.375
O/OREOS (USA 219) 29 Nov 04:32:27 04:35:55 22° 102° (ESE) 04:39:22 437.305
MOZHAYETS 4 29 Nov 04:38:03 04:42:36 70° 76° (ENE) 04:47:12
ISS 29 Nov 04:41:51 04:44:01 16° 34° (NE) 04:46:11 145.825
AO-7 29 Nov 05:04:25 05:12:47 78° 289° (WNW) 05:21:08 29.400- 29.500
STRAND 1 29 Nov 05:12:37 05:13:44 11° 64° (ENE) 05:14:52 437.568
AIST 2 29 Nov 05:13:52 05:18:04 52° 60° (ENE) 05:22:11 435.215
JAS-2 29 Nov 05:14:06 05:20:30 48° 98° (E) 05:26:08 435.910
Cubesat XI-IV 29 Nov 05:33:55 05:36:48 15° 94° (E) 05:39:40 437.490
BEESAT 3 29 Nov 05:44:02 05:47:30 26° 249° (WSW) 05:50:55 437.485
PCSat 29 Nov 05:48:07 05:52:41 28° 253° (WSW) 05:57:14 145.827
BEESAT 2 29 Nov 06:03:00 06:05:50 18° 251° (WSW) 06:08:38 435.950
PRISM 29 Nov 06:10:21 06:14:27 55° 259° (W) 06:18:37 437.425
O/OREOS (USA 219) 29 Nov 06:11:25 06:15:08 25° 295° (WNW) 06:18:51 437.305
CUTE-I 29 Nov 06:12:34 06:17:29 37° 99° (E) 06:22:21 437.470
ISS 29 Nov 06:17:40 06:20:46 40° 229° (SW) 06:23:53 145.825
GONETS M04 29 Nov 06:23:23 06:25:46 11° 78° (ENE) 06:28:09
CUBESAT XI-V 29 Nov 06:29:20 06:34:02 76° 77° (ENE) 06:38:45 437.345
STRAND 1 29 Nov 06:47:07 06:52:14 74° 258° (WSW) 06:57:23 437.568
AIST 1 29 Nov 06:47:41 06:52:02 75° 83° (E) 06:56:20
AIST 2 29 Nov 06:55:29 06:56:09 10° 253° (WSW) 06:56:50 435.215
JAS-2 29 Nov 07:00:03 07:05:00 23° 296° (WNW) 07:09:34 435.910
AO-7 29 Nov 07:00:25 07:04:13 14° 306° (NW) 07:08:02 29.400- 29.500
Cubesat XI-IV 29 Nov 07:11:58 07:17:07 52° 287° (WNW) 07:22:15 437.490
CUTE-I 29 Nov 07:53:18 07:57:14 22° 292° (WNW) 08:01:10 437.470
